Wheeling, WV

9:42 AM EST on January 19, 2018 (GMT -0500)
Wheeling-Ohio County

Weather History for KHLG - March, 2013

Change the Weather History Date:

Friday, March 22, 2013

  Actual Average Record
Temperature  
Mean Temperature 32 °F 42 °F  
Max Temperature 39 °F 51 °F 82 °F (2012)
Min Temperature 24 °F 33 °F 14 °F (2002)
Degree Days  
Heating Degree Days 33 23  
Month to date heating degree days 649 586  
Since 1 July heating degree days 4661 4753  
Cooling Degree Days 0    
Month to date cooling degree days 0  
Year to date cooling degree days 0  
Moisture  
Dew Point 16 °F    
Average Humidity 61    
Maximum Humidity 81    
Minimum Humidity 40    
Precipitation  
Precipitation 0.00 in 0.11 in 0.52 in (1984)
Month to date precipitation 1.00 2.10  
Sea Level Pressure  
Sea Level Pressure 29.99 in    
Wind  
Wind Speed 8 mph (West)    
Max Wind Speed 20 mph    
Max Gust Speed 28 mph    
Visibility 10 miles    
Events      
T = Trace of Precipitation, MM = Missing Value Source: NWS Daily Summary

Daily Weather History Graph

Daily Weather History Graph

Search for Another Location

Airport or City:

Trip Planner

Search our weather history database for the weather conditions in past years. The results will help you decide how hot, cold, wet, or windy it might be!

Date:

Astronomy

Mar. 22, 2013 Rise Set
Actual Time 7:22 AM EDT 7:36 PM EDT
Civil Twilight 6:55 AM EDT 8:04 PM EDT
Nautical Twilight 6:23 AM EDT 8:35 PM EDT
Astronomical Twilight 5:51 AM EDT 9:08 PM EDT
Moon 3:02 PM EDT (3/22) 4:22 AM EDT (3/22)
Length of Visible Light 13h 08m
Length of Day
12h 14m
Waxing Gibbous, 77% of the Moon is Illuminated
Mar 22
Waxing Gibbous
Mar 27
Full
Apr 3
Last Quarter
Apr 10
New
Apr 18
First Quarter

Hourly Weather History & Observations

Time (EDT) Temp. Windchill Dew Point Humidity Pressure Visibility Wind Dir Wind Speed Gust Speed Precip Events Conditions
12:53 AM 26.1 °F 13.6 °F 18.0 °F 71% 29.96 in 10.0 mi West 16.1 mph 26.5 mph 0.00 in   Overcast
1:53 AM 26.1 °F 15.6 °F 18.0 °F 71% 29.96 in 10.0 mi West 11.5 mph 20.7 mph N/A   Overcast
2:53 AM 26.1 °F 15.6 °F 18.0 °F 71% 29.96 in 10.0 mi West 11.5 mph 23.0 mph N/A   Overcast
3:53 AM 25.0 °F 13.6 °F 18.0 °F 75% 29.96 in 10.0 mi West 12.7 mph 19.6 mph N/A   Partly Cloudy
4:53 AM 25.0 °F 14.8 °F 19.0 °F 78% 29.95 in 10.0 mi WSW 10.4 mph - N/A   Overcast
5:53 AM 25.0 °F 15.5 °F 17.1 °F 72% 29.95 in 10.0 mi WSW 9.2 mph - N/A   Mostly Cloudy
6:53 AM 25.0 °F 14.8 °F 15.1 °F 66% 29.97 in 10.0 mi WSW 10.4 mph 19.6 mph N/A   Overcast
7:37 AM 24.8 °F 15.3 °F 15.8 °F 69% 29.93 in 10.0 mi West 9.2 mph 20.7 mph N/A   Scattered Clouds
7:53 AM 24.1 °F 15.2 °F 15.1 °F 69% 29.99 in 10.0 mi West 8.1 mph - N/A   Mostly Cloudy
8:53 AM 24.1 °F 13.7 °F 15.1 °F 69% 30.01 in 10.0 mi West 10.4 mph - N/A   Overcast
9:53 AM 25.0 °F 15.5 °F 16.0 °F 69% 30.01 in 10.0 mi West 9.2 mph - N/A   Overcast
10:06 AM 26.6 °F 16.8 °F 15.8 °F 64% 29.96 in 10.0 mi West 10.4 mph 18.4 mph N/A   Overcast
10:16 AM 26.6 °F 15.7 °F 15.8 °F 64% 29.97 in 10.0 mi West 12.7 mph - N/A   Overcast
10:53 AM 27.0 °F 18.7 °F 16.0 °F 63% 30.02 in 10.0 mi West 8.1 mph - N/A   Overcast
11:53 AM 28.0 °F 19.3 °F 14.0 °F 56% 30.02 in 10.0 mi SW 9.2 mph - N/A   Overcast
12:53 PM 30.0 °F 21.7 °F 15.1 °F 54% 30.02 in 10.0 mi West 9.2 mph - N/A   Overcast
1:53 PM 30.0 °F 20.0 °F 15.1 °F 54% 30.02 in 10.0 mi West 12.7 mph 19.6 mph N/A   Overcast
2:53 PM 32.0 °F 23.0 °F 16.0 °F 52% 30.01 in 10.0 mi West 11.5 mph 19.6 mph N/A   Overcast
3:53 PM 37.0 °F 30.4 °F 17.1 °F 44% 30.00 in 10.0 mi NW 9.2 mph 16.1 mph N/A   Mostly Cloudy
4:53 PM 37.9 °F 32.7 °F 17.1 °F 43% 29.98 in 10.0 mi WNW 6.9 mph 19.6 mph N/A   Clear
5:53 PM 37.9 °F 33.5 °F 16.0 °F 41% 29.98 in 10.0 mi Variable 5.8 mph 16.1 mph N/A   Clear
6:53 PM 37.0 °F 29.8 °F 16.0 °F 42% 29.99 in 10.0 mi West 10.4 mph - N/A   Clear
7:53 PM 35.1 °F 30.1 °F 16.0 °F 46% 30.00 in 10.0 mi WNW 5.8 mph - N/A   Clear
8:53 PM 34.0 °F - 16.0 °F 48% 30.02 in 10.0 mi Calm Calm - N/A   Clear
9:53 PM 33.1 °F - 16.0 °F 50% 30.03 in 10.0 mi Calm Calm - N/A   Clear
10:53 PM 30.9 °F - 16.0 °F 54% 30.04 in 10.0 mi Calm Calm - N/A   Clear
11:53 PM 30.9 °F 27.5 °F 18.0 °F 59% 30.04 in 10.0 mi West 3.5 mph - N/A   Clear